Group: talion

Releases: 80.819 · Total size: 8,28 TB

First: 2007-01-09 · Last: 2026-08-30

By section: MP3/FLAC 80.763 (8,28 TB), Music Video 56 (6,64 GB)

Release Section Group Size Files Date ↓
Mark_Brown_-_Cr2_Live_and_Direct_449-CABLE-10-27-2019-TALiON MP3/FLAC TALiON 105,01 MB 4 2019-10-30
Eats_Everything_-_Edible_bEats_139-SAT-10-23-2019-TALiON MP3/FLAC TALiON 79,43 MB 4 2019-10-30
Claptone_-_Clapcast_223-SAT-10-29-2019-TALiON MP3/FLAC TALiON 116,51 MB 4 2019-10-30
Roger_Sanchez_-_Release_Yourself_940__Incl_Ammo_Avenue_Guestmix-CABLE-10-27-2019-TALiON MP3/FLAC TALiON 212,87 MB 4 2019-10-29
Swanky_Tunes_-_Showland-CABLE-10-29-2019-TALiON MP3/FLAC TALiON 107,39 MB 4 2019-10-29
Loris_Cimino_-_Revealed_Radio_240-CABLE-10-28-2019-TALiON MP3/FLAC TALiON 108,45 MB 4 2019-10-29
Deadmau5_-_Mau5trap_057__Pig_and_Dan_Takeover-CABLE-10-28-2019-TALiON MP3/FLAC TALiON 107,20 MB 4 2019-10-29
Jayli_-_Hedkandi_Radio-CABLE-10-28-2019-TALiON MP3/FLAC TALiON 106,82 MB 4 2019-10-29
Josh_Wink_-_Profound_Sounds__Live_from_25_Years_of_Ovum_Part2_(Los_Angeles)-SAT-09-21-2019-TALiON MP3/FLAC TALiON 77,23 MB 4 2019-10-29
Goldie_and_The_Metalheadz_Crew_-_BBC_Radio1s_Drum_and_Bass_Show-SAT-10-29-2019-TALiON MP3/FLAC TALiON 223,04 MB 4 2019-10-29
Louis_The_Child_-_Playground_Radio_042-SAT-10-28-2019-TALiON MP3/FLAC TALiON 102,87 MB 4 2019-10-28
Nicole_Moudaber_-_In_The_MOOD_287-CABLE-10-28-2019-TALiON MP3/FLAC TALiON 112,25 MB 4 2019-10-28
Oliver_Heldens_-_Heldeep_Radio_281-SAT-10-18-2019-TALiON MP3/FLAC TALiON 115,48 MB 4 2019-10-28
Joris_Voorn_-_Spectrum_Radio_130__Live_from_Rave_Rebels_(Brussels)-SAT-10-20-2019-TALiON MP3/FLAC TALiON 108,14 MB 4 2019-10-28
Christian_Smith_-_Tronic_377__Incl_B-Type_Guestmix-SAT-10-20-2019-TALiON MP3/FLAC TALiON 109,74 MB 4 2019-10-28
Oliver_Heldens_-_Heldeep_Radio_282-SAT-10-25-2019-TALiON MP3/FLAC TALiON 118,08 MB 4 2019-10-28
Joris_Voorn_-_Spectrum_Radio_131__Live_from_Rave_Rebels_(Brussels)-CABLE-10-26-2019-TALiON MP3/FLAC TALiON 107,71 MB 4 2019-10-28
Christian_Smith_-_Tronic_378-SAT-10-27-2019-TALiON MP3/FLAC TALiON 115,54 MB 4 2019-10-28
Alan_Fitzpatrick_-_We_Are_The_Brave_078-SAT-10-28-2019-TALiON MP3/FLAC TALiON 116,91 MB 4 2019-10-28
Dave_Clarke_-_White_Noise_721-SAT-10-27-2019-TALiON MP3/FLAC TALiON 109,67 MB 4 2019-10-28
Robbie_Rivera_-_The_Juicy_Radio_Show_758-SAT-10-27-2019-TALiON MP3/FLAC TALiON 117,77 MB 4 2019-10-28
Anja_Schneider_-_Club_Room_079-SAT-10-28-2019-TALiON MP3/FLAC TALiON 114,96 MB 4 2019-10-28
Chris_Liebing_-_AM.FM_242_Live_at_909_x_Loveland_ADE_Special_(Amsterdam)-SAT-10-27-2019-TALiON MP3/FLAC TALiON 111,28 MB 4 2019-10-28
Claptone_-_Traxsource_LIVE_246-SAT-10-27-2019-TALiON MP3/FLAC TALiON 113,34 MB 4 2019-10-28
Roger_Shah_-_Magic_Island_597-SAT-10-27-2019-TALiON MP3/FLAC TALiON 239,12 MB 4 2019-10-28
Matt_Fax_-_Anjunabeats_Worldwide_648-SAT-10-27-2019-TALiON MP3/FLAC TALiON 118,47 MB 4 2019-10-28
David_Penn_-_Urbana_435-SAT-10-26-2019-TALiON MP3/FLAC TALiON 113,43 MB 4 2019-10-28
Cosmic_Gate_-_Wake_Your_Mind_Radio_290-SAT-10-27-2019-TALiON MP3/FLAC TALiON 112,28 MB 4 2019-10-28
VA_-_Spinnin_Sessions_337__Incl_Vintage_Culture_Guestmix-SAT-10-27-2019-TALiON MP3/FLAC TALiON 115,36 MB 4 2019-10-28
HAAi_-_BBC_Radio1s_Residency-SAT-10-28-2019-TALiON MP3/FLAC TALiON 113,63 MB 4 2019-10-28
Saoirse_-_BBC_Radio1s_Residency-SAT-10-28-2019-TALiON MP3/FLAC TALiON 86,03 MB 4 2019-10-28
Sir_Spyro_-_BBC1Xtra-SAT-10-25-2019-TALiON MP3/FLAC TALiON 220,75 MB 4 2019-10-27
Adam_Beyer_-_Drumcode_482__Live_from_Resistance_Santiago_(Chile)-SAT-10-25-2019-TALiON MP3/FLAC TALiON 112,34 MB 4 2019-10-27
Regi_-_In_The_Mix_(MNM)-CABLE-10-26-2019-TALiON MP3/FLAC TALiON 99,07 MB 4 2019-10-27
Dimitri_Vegas_and_Like_Mike_-_Smash_The_House-CABLE-10-26-2019-TALiON MP3/FLAC TALiON 96,15 MB 4 2019-10-27
Ben_Liebrand_-_In_The_Mix_(Radio10)-CABLE-10-26-2019-TALiON MP3/FLAC TALiON 51,39 MB 4 2019-10-27
Dennis_Verheugd_-_Powermix_(Radio10)-CABLE-10-25-2019-TALiON MP3/FLAC TALiON 177,89 MB 4 2019-10-27
Wessel_van_Diepen_-_Global_Dance_Chart-CABLE-10-25-2019-TALiON MP3/FLAC TALiON 180,57 MB 4 2019-10-27
Monki_-_Defected_Radio-CABLE-10-27-2019-TALiON MP3/FLAC TALiON 108,95 MB 4 2019-10-27
Mark_Knight_-_Toolroom_Radio_500-SAT-10-27-2019-TALiON MP3/FLAC TALiON 232,45 MB 4 2019-10-27
Kryder_-_Kryteria_209-CABLE-10-24-2019-TALiON MP3/FLAC TALiON 109,87 MB 4 2019-10-27
Bingo_Players_-_Hysteria_Radio_186-SAT-10-26-2019-TALiON MP3/FLAC TALiON 115,24 MB 4 2019-10-27
Noisia_-_Noisia_Radio_S05E43-CABLE-10-23-2019-TALiON MP3/FLAC TALiON 113,70 MB 4 2019-10-27
Afrojack_-_Jacked_Radio_418-SAT-10-25-2019-TALiON MP3/FLAC TALiON 115,30 MB 4 2019-10-27
Pasquale_Rotella_-_Night_Owl_Radio_219__Incl_B.Traits_Guestmix-SAT-10-25-2019-TALiON MP3/FLAC TALiON 219,82 MB 4 2019-10-27
Paul_van_Dyk_-_VONYC_Sessions_677__Inc_Kinetica_Guestmix-SAT-10-27-2019-TALiON MP3/FLAC TALiON 216,82 MB 4 2019-10-27
Hardwell_-_On_Air_440-SAT-10-26-2019-TALiON MP3/FLAC TALiON 111,45 MB 4 2019-10-27
D-Rashid_-_Club_Sessions_(FunX)-CABLE-10-25-2019-TALiON MP3/FLAC TALiON 104,58 MB 4 2019-10-27
Freddy_Moreira_-_Moreiras_Mansion_(FunX)-CABLE-10-26-2019-TALiON MP3/FLAC TALiON 103,70 MB 4 2019-10-27
Dennis_Ruyer_-_Dance_Department_(Radio538)-CABLE-10-26-2019-TALiON MP3/FLAC TALiON 132,14 MB 4 2019-10-27